Tracking 27112 objects as of 27-Mar-2023
HD Live streaming from Space Station
objects crossing your sky now

STARLINK-3192

Track STARLINK-3192 now!
10-day predictions
STARLINK-3192 is classified as:


NORAD ID: 49767
Int'l Code: 2021-115AV
Perigee: 546.1 km
Apogee: 547.8 km
Inclination: 53.2 °
Period: 95.4 minutes
Semi major axis: 6917 km
RCS: Unknown
Launch date: December 2, 2021
Source: United States (US)
Launch site: AIR FORCE EASTERN TEST RANGE (AFETR)
Your satellite tracking list
Your tracking list is empty




NASA's NSSDC Master Catalog

Two Line Element Set (TLE):
1 49767U 21115AV  23085.86080290 -.00001520  00000-0 -77466-4 0  9998
2 49767  53.2158 302.1700 0001222 100.3841 259.7289 15.08824978 72818
Source of the keplerian elements: AFSPC